Johannesburg, MI (49751)

4:42 PM EST on February 11, 2016 (GMT -0500)
KMILEWIS2 | | Change Station
CLOSE
Current Station
Personal Weather Station
Location: Lewiston, MI
Elevation: 1266 ft
Nearby Weather Stations
Active Advisory: Winter Weather Advisory

Elev 1266 ft 44.89 °N, 84.36 °W | Updated 12 minutes ago

Overcast
Overcast
15.8 °F
Feels Like 16 °F
N
2.9
Wind Variable Wind from SE
Gusts 4.5 mph

Today
High -- | Low -- °F
--% Chance of Precip.
Yesterday
High -- | Low -- °F
Precip. -- in
Pressure 30.13 in
Visibility 3.0 miles
Clouds Scattered Clouds 1800 ft
Scattered Clouds 2900 ft
Overcast 3800 ft
Windchill 16 °F
Dew Point -2 °F
Humidity 44%
Rainfall 0.00 in
Snow Depth Not available.
7:45 AM 5:59 PM
Waxing Crescent, 14% visible
METAR KGOV 112135Z AUTO 27010KT 240V310 3SM -SN SCT018 SCT029 OVC038 M09/M13 A3013 RMK AO2 T10911131
Pressure 30.13 in
Visibility 3.0 miles
Clouds Scattered Clouds 1800 ft
Scattered Clouds 2900 ft
Overcast 3800 ft
Windchill 16 °F
Dew Point -2 °F
Humidity 44%
Rainfall 0.00 in
Snow Depth Not available.
7:45 AM 5:59 PM
Waxing Crescent, 14% visible
METAR KGOV 112135Z AUTO 27010KT 240V310 3SM -SN SCT018 SCT029 OVC038 M09/M13 A3013 RMK AO2 T10911131

10-Day Weather Forecast

Almanac

Astronomy

Feb. 11, 2016 Rise Set
Actual Time
Civil Twilight
Nautical Twilight
Astronomical Twilight
Moon
Length of Visible Light
Length of Day
Tomorrow will be .
, % of the Moon is Illuminated

Today's Extremes

State Highs State Lows

Community

WunderPhotos

Upload Photos

1,892,165 photos uploaded!

WunderBlog® & News

Nearby

Air Quality

  Air Quality AQ Index Pollutant
Not available.

Snow Depth

Station Depth Elevation

Earthquake Activity

City Distance Mag. Time & Date
Minimum magnitude displayed is 2.5.

Coastal Water Temperatures

Place Temperature

Stations

Nearby Weather Stations

Station Location Temp. Windchill Dew Point Humidity Wind Precip. Elev Updated Type
                   

Watches & Warnings

Winter Weather Advisory
Issued: 3:46 PM EST Feb. 11, 2016 – National Weather Service

... Winter Weather Advisory in effect from 7 am to 4 PM EST
Friday...

The National Weather Service in Gaylord has issued a Winter
Weather Advisory... which is in effect from 7 am to 4 PM EST
Friday.

* Lake effect snow will occur in northwest lower Michigan Friday.

* Accumulations of 2 to 4 inches will occur... with the highest
amounts expected in the Traverse City and Kalkaska areas.

* Gusty northwest winds will result in blowing and drifting
snow... and contribute to sharply limited visibilities at times.

Precautionary/preparedness actions...

A Winter Weather Advisory for lake effect snow and blowing snow
means that visibilities will be limited due to a combination of
falling and blowing snow. Use caution when traveling... especially
in open areas.



Jz